STARLINK-4596, 53624

Orbit data source: Space-Track

STARLINK-4596, 53624 is a payload satellite owned by SpaceX/Seattle (US) in LEO that was launched on Sun, 28 Aug 2022 UTC via an FALCON 9 launch vehicle from the Air Force Eastern Test Range (AFETR). Payloads include a variety of satellites, spacecraft, and rockets equipped with specific instruments for various scientific and technological missions. These include communications satellites like Starlink; space stations such as the ISS; scientific satellites like the Hubble; Earth observation satellites from companies like Planet Labs, Umbra, and HawkEye 360; GPS; miniature CubeSats for education and research; and military/defense satellites.

Loading next visibility...
STARLINK-4596 details
Identifier
53624, 2022-104AN
Orbit
LEO
Last TLE update11 hours ago
Origin
Flag of USSpaceX/Seattle (US)
ManufacturerSpaceX/Seattle
MissionOperational Commercial Communications
Bus & MotorSTARLINK, Unknown motor
Mass300 kg wet, ~290 kg dry
Launch date (UTC)
2022-08-28 (2 years ago)
Launch vehicle
FALCON 9
Launch site
Air Force Eastern Test Range (AFETR)
Object type
Payload
Rocket body
Debris
Shape & HBRBox + 1 Pan, 8.86 m
Radar Cross Section13.562 m², Large (>1 m²)

Expand to show TLE details & history

TLE from 11 hours ago
0 STARLINK-4596
1 53624U 22104AN  24361.28130038  .00009463  00000-0  61157-3 0  9995
2 53624  53.2176  41.9699 0001540  90.1341 269.9828 15.08857846129561
Epoch: 2024-12-26T06:45Z
Definitive object data (Epoch: 2024-12-26T06:45:04.352Z)
Latitude-0.00001°
Longitude-154.56119°
Altitude540.587 km
Speed7.593 km/s
True Right ascension02h 47m 52s
True Declination0° 00' 00"
Sunlit
Object was in full shadow at TLE epoch
Visualization TLE readout
Latitude-49.34829°
Longitude143.42925°
Altitude557.683 km
Speed7.582 km/s
Apparent Right ascension01h 57m 47s
Apparent Declination-55° 22' 56"
Sunlit
Object is in daylight
Visualization observer readout
Local Sidereal Time16:56:18
Azimuth132.97° SE
Elevation-56.946°
Doppler factor1
Orbital elements
Apogee altitude540.999 km
Perigee altitude538.868 km
Semi-major axis6,918.071 km
Eccentricity0.000154
Inclination53.2176°
RAAN41.9699°
Arg. of periapsis90.1341°
True anomaly269.96515°
Mean anomaly269.9828°
Eccentric anomaly269.97398°
Mean motion3.77195 °/min
BSTAR0.00061157
Orbital period95.44 mins
Loading maneuver chart data...
Loading historical data...
Loading historical data...
Loading historical data...
Loading historical data...
Loading historical data...
Loading historical data...
Loading historical data...

STARLINK-4596 Visibility forecast

Observer location: undefined°, undefined

Span
Click to sort rows by Start time (UTC) header in descending order
Start Az.
Max El. time (UTC)
Max El. Az.
Max El.
End time (UTC)
End Az.
7 mins2024-12-27 05:09:57.145Z209.362° SW2024-12-27 05:13:57.145Z108.457° ESE36.628°2024-12-27 05:16:57.145Z60.582° ENE
5 mins2024-12-27 06:50:57.145Z287.81° WNW2024-12-27 06:52:57.145Z331.658° NNW24.941°2024-12-27 06:55:57.145Z28.194° NE
6 mins2024-12-27 11:51:57.145Z328.014° NNW2024-12-27 11:53:57.145Z17.922° NNE36.977°2024-12-27 11:57:57.145Z110.862° ESE
4 mins2024-12-27 13:31:57.145Z260.4° W2024-12-27 13:32:57.145Z240.226° WSW20.506°2024-12-27 13:35:57.145Z185.124° SSW
|